アトラス彗星

C/2017 D3 ( ATLAS )

English version
Home page
Updated on May 20, 2019

---------------------------------------------------------------------

・ プロフィール

発見日 2017年2月23日
発見光度 18.0等
発見者 Asteroid Terrestrial-impact Last Alert System (ATLAS) Team

・ 写真集

・ 軌道要素

Epoch 2017 May 7.0 TT = JDT 2457880.5
T 2017 Apr. 26.87046 TT                                 MPCW
q   4.9713523            (2000.0)            P               Q
z  -0.0004258      Peri.  340.77261     -0.91589068     -0.39040156
 +/-0.0000009      Node   186.60252     -0.16806168     +0.16152828
e   1.0021167      Incl.  125.64428     -0.36455389     +0.90636374
From 449 observations 2017 Feb. 10-2019 Mar. 25, mean residual 0".5.

・ 光度変化

        m1 = 3.0 + 5 logΔ + 15.0 log r(t - 200)

---------------------------------------------------------------------

軌道要素はM.P.E.C. 2019-J142に掲載されたものです。
光度グラフはComet for Windowsで作成したものです。

---------------------------------------------------------------------

Copyright(C) Seiichi Yoshida (comet@aerith.net). All rights reserved.